Flag for Kosovo Weather past 2 weeks in Uroševac, Kosovo

Now
59 °F

Passing clouds.


Feels Like: 59 °F
Forecast: 42 / 72 °F
Wind: 5 mph from East

Location: Skopje-Petrovec

Current Time: Apr 25, 2015 at 8:14:18 PM

Latest Report: Apr 25, 2015 at 8:00 PM


Visibility: N/A

Pressure: 30.01 "Hg

Humidity: 63%

Dew point: 46 °F

Location of UroševacLocation

Historic Weather in Uroševac — Graph

°F

Uroševac temperature yesterday

Maximum temperature yesterday: 70 °F (at 3:00 PM)
Minimum temperature yesterday: 43 °F (at 6:00 AM)
Average temperature yesterday: 56 °F

Past Weeks' High & Low Weather Summary

 TemperatureHumidityPressure
High77 °F (Apr 16, 4:30 PM)93% (Apr 24, 7:00 AM)30.36 "Hg (Apr 24, 7:00 AM)
Low34 °F (Apr 11, 3:30 AM)16% (Apr 11, 4:00 PM)29.77 "Hg (Apr 18, 3:30 PM)
Average55 °F54%30.13 "Hg
* Reported Apr 10 7:00 PM — Apr 25 7:00 PM, Uroševac, Weather by CustomWeather, © 2015

Note: Actual official high and low records may vary slightly from our data, if they occured in-between our weather recording intervals... More about our weather records

Advertising

Uroševac weather history for previous 24 hours

 ConditionsComfort  
Time TempWeatherWind HumidityBarometerVisibility
7:00 PM
Sat, Apr 25
68 °FPassing clouds.2 mph43%29.98 "HgN/A
6:00 PM70 °FPassing clouds.No wind35%29.98 "HgN/A
5:30 PM70 °FPassing clouds.No wind38%29.98 "HgN/A
5:00 PM70 °FPassing clouds.No wind38%29.98 "HgN/A
4:30 PM70 °FPassing clouds.No wind38%29.98 "HgN/A
4:00 PM70 °FPassing clouds.2 mph38%29.98 "HgN/A
3:30 PM68 °FPassing clouds.2 mph43%30.01 "HgN/A
3:00 PM68 °FPassing clouds.2 mph43%30.01 "HgN/A
2:30 PM68 °FPassing clouds.2 mph46%30.04 "HgN/A
2:00 PM66 °FPassing clouds.2 mph49%30.07 "HgN/A
1:30 PM64 °FPassing clouds.2 mph52%30.07 "HgN/A
1:00 PM64 °FPassing clouds.2 mph52%30.07 "HgN/A
12:30 PM63 °FPassing clouds.2 mph59%30.09 "HgN/A
12:00 PM63 °FPassing clouds.2 mph59%30.09 "HgN/A
11:30 AM63 °FScattered clouds.2 mph64%30.09 "HgN/A
11:00 AM59 °FScattered clouds.2 mph72%30.12 "HgN/A
10:30 AM57 °FScattered clouds.2 mph77%30.12 "HgN/A
10:00 AM55 °FOvercast.2 mph77%30.12 "HgN/A
9:30 AM55 °FLight rain. Overcast.3 mph77%30.12 "HgN/A
9:00 AM55 °FLight rain. Overcast.3 mph77%30.12 "HgN/A
8:30 AM54 °FDrizzle. Overcast.7 mph82%30.12 "HgN/A
8:00 AM55 °FPartly sunny.No wind72%30.12 "HgN/A
7:30 AM54 °FPartly sunny.1 mph77%30.12 "HgN/A
7:00 AM54 °FOvercast.2 mph77%30.12 "HgN/A
6:30 AM52 °FPassing clouds.1 mph82%30.09 "HgN/A
6:00 AM52 °FPassing clouds.No wind77%30.09 "HgN/A
5:30 AM52 °FPassing clouds.2 mph82%30.09 "HgN/A
5:00 AM52 °FPassing clouds.2 mph77%30.09 "HgN/A
4:30 AM54 °FPassing clouds.2 mph72%30.09 "HgN/A
4:00 AM55 °FOvercast.3 mph72%30.09 "HgN/A
3:30 AM54 °FOvercast.2 mph82%30.09 "HgN/A
3:00 AM54 °FOvercast.5 mph82%30.07 "HgN/A
2:30 AM54 °FOvercast.1 mph82%30.07 "HgN/A
2:00 AM55 °FOvercast.No wind72%30.07 "HgN/A
1:30 AM55 °FOvercast.No wind72%30.07 "HgN/A
1:00 AM55 °FMostly cloudy.2 mph72%30.07 "HgN/A
12:30 AM55 °FOvercast.1 mph72%30.07 "HgN/A
11:30 PM
Fri, Apr 24
57 °FMostly cloudy.3 mph67%30.07 "HgN/A
11:00 PM59 °FClear.5 mph63%30.07 "Hg10 mi
10:30 PM59 °FClear.3 mph63%30.07 "Hg10 mi
10:00 PM61 °FPassing clouds.2 mph55%30.04 "HgN/A
9:30 PM61 °FPassing clouds.16 mph55%30.04 "HgN/A
9:00 PM61 °FOvercast.12 mph55%30.04 "HgN/A
8:30 PM63 °FOvercast.12 mph49%30.04 "HgN/A
8:00 PM63 °FPartly sunny.9 mph49%30.04 "HgN/A
Weather by CustomWeather, © 2015

See weather overviewHow to use our weather pages